{"data":{"norad_id":52120,"intl_designator":"2022-029AJ","name":"STARLINK-3534","alt_names":[],"object_type":"PAYLOAD","status":"ACTIVE","operator":null,"country":"US","launch_date":"2022-03-19","launch_site_code":"AFETR","launch_vehicle":null,"mission":null,"orbit_class":"UNKNOWN","rcs_meters":null,"size_class":null,"mass_kg":null,"dimensions":null,"purposes":["comms"],"wikipedia_slug":null,"has_3d_model":false,"image_url":null,"decayed_at":null,"tle_current":{"epoch":"2026-09-19T16:04:25.487616Z","epoch_age_seconds":127928,"freshness":"FRESH","line1":"1 52120U 22029AJ  26262.66973944 -.00000429  00000+0 -15750-5 0  9990","line2":"2 52120  53.1603 271.4054 0001264  96.1623 263.9524 15.34375735250318","mean_motion":15.34375735,"eccentricity":0.0001264,"inclination_deg":53.1603,"raan_deg":271.4054,"arg_perigee_deg":96.1623,"mean_anomaly_deg":263.9524,"bstar":-1.575e-6,"rev_number":25031,"period_min":93.849242213153,"perigee_km":461.91067052863,"apogee_km":463.6400531737,"semimajor_km":6840.9123618512,"source":"CELESTRAK","updated_at":"2026-09-20T09:00:39.989694Z"}}}